Weather reports worldwide

Advertisment
St. James's Park, United Kingdom (3770): temperature & dewpoint: 15.07.2018 02:00:00 - 21.07.2018 02:00:00 (BST)St. James's Park, United Kingdom (3770): temperature -20cm & temperature -100cm: 15.07.2018 02:00:00 - 21.07.2018 02:00:00 (BST)St. James's Park, United Kingdom (3770): precipitation: 15.07.2018 02:00:00 - 21.07.2018 02:00:00 (BST)
Date & Time tt [°C] td [°C] tt -20cm [°C] tt -100cm [°C] rr [mm]
21.07.2018 02:00:00 18,6 14,4 - - 0,0
21.07.2018 01:00:00 18,8 14,7 - - 0,0
21.07.2018 00:00:00 19,1 14,6 - - 0,0
20.07.2018 23:00:00 19,3 14,1 - - 0,0
20.07.2018 22:00:00 19,9 13,7 - - 0,0
20.07.2018 21:00:00 20,5 13,8 - - 0,0
20.07.2018 20:00:00 21,3 15,4 - - 0,0
20.07.2018 19:00:00 21,8 14,1 - - 0,0
20.07.2018 18:00:00 21,6 14,4 - - 0,0
20.07.2018 17:00:00 21,7 14,7 - - 0,0
20.07.2018 16:00:00 22,8 14,2 - - 0,0
20.07.2018 15:00:00 23,5 14,6 - - 0,0
20.07.2018 14:00:00 22,8 14,3 - - 0,0
20.07.2018 13:00:00 23,3 13,7 - - 0,0
20.07.2018 12:00:00 23,7 13,4 - - 0,0
20.07.2018 11:00:00 23,0 12,8 - - 0,0
20.07.2018 10:00:00 22,3 11,8 21,0 19,7 0,0
20.07.2018 09:00:00 21,2 10,9 - - 0,0
20.07.2018 08:00:00 20,4 10,5 - - 0,0
20.07.2018 07:00:00 19,8 10,0 - - 0,0
20.07.2018 06:00:00 19,5 9,2 - - 0,0
20.07.2018 05:00:00 18,9 7,3 - - 0,0
20.07.2018 04:00:00 19,3 7,1 - - 0,0
20.07.2018 03:00:00 19,2 8,4 - - 0,0
20.07.2018 02:00:00 19,8 8,1 - - 0,0
20.07.2018 01:00:00 19,8 8,3 - - 0,0
20.07.2018 00:00:00 20,7 8,1 - - 0,0
19.07.2018 23:00:00 21,3 9,3 - - 0,0
19.07.2018 22:00:00 21,5 10,5 - - 0,0
19.07.2018 21:00:00 22,3 10,6 - - 0,0
19.07.2018 20:00:00 23,6 11,0 - - 0,0
19.07.2018 19:00:00 25,0 11,3 - - 0,0
19.07.2018 18:00:00 26,2 11,3 - - 0,0
19.07.2018 17:00:00 25,6 11,9 - - 0,0
19.07.2018 16:00:00 26,1 10,5 - - 0,0
19.07.2018 15:00:00 25,8 10,3 - - 0,0
19.07.2018 14:00:00 26,0 10,0 - - 0,0
19.07.2018 13:00:00 25,7 7,7 - - 0,0
19.07.2018 12:00:00 25,3 8,7 - - 0,0
19.07.2018 11:00:00 23,8 8,6 - - 0,0
19.07.2018 10:00:00 23,2 10,3 20,9 19,7 0,0
19.07.2018 09:00:00 21,0 10,1 - - 0,0
19.07.2018 08:00:00 20,0 12,3 - - 0,0
19.07.2018 07:00:00 16,3 13,1 - - 0,0
19.07.2018 06:00:00 15,0 12,0 - - 0,0
19.07.2018 05:00:00 15,2 11,9 - - 0,0
19.07.2018 04:00:00 15,6 12,0 - - 0,0
19.07.2018 03:00:00 16,0 11,6 - - 0,0
19.07.2018 02:00:00 17,3 11,9 - - 0,0
19.07.2018 01:00:00 17,4 11,9 - - 0,0
19.07.2018 00:00:00 18,4 11,9 - - 0,0
18.07.2018 23:00:00 20,4 11,8 - - 0,0
18.07.2018 22:00:00 21,8 11,7 - - 0,0
18.07.2018 21:00:00 22,3 11,3 - - 0,0
18.07.2018 20:00:00 23,3 11,0 - - 0,0
18.07.2018 19:00:00 23,7 10,8 - - 0,0
18.07.2018 18:00:00 23,7 9,8 - - 0,0
18.07.2018 17:00:00 25,4 9,9 - - 0,0
18.07.2018 16:00:00 24,2 8,3 - - 0,0
18.07.2018 15:00:00 25,9 10,4 - - 0,0
18.07.2018 14:00:00 23,6 9,7 - - 0,0
18.07.2018 13:00:00 23,4 10,7 - - 0,0
18.07.2018 12:00:00 21,4 10,2 - - 0,0
18.07.2018 11:00:00 22,4 11,8 - - 0,0
18.07.2018 10:00:00 20,9 10,9 21,0 19,7 0,0
18.07.2018 09:00:00 19,8 13,0 - - 0,0
18.07.2018 08:00:00 17,4 13,3 - - 0,0
18.07.2018 07:00:00 16,7 12,9 - - 0,0
18.07.2018 06:00:00 15,5 12,5 - - 0,0
18.07.2018 05:00:00 16,0 12,2 - - 0,0
18.07.2018 04:00:00 16,6 12,2 - - 0,0
18.07.2018 03:00:00 17,3 12,2 - - 0,0
18.07.2018 02:00:00 17,7 12,1 - - 0,0
18.07.2018 01:00:00 18,0 12,0 - - 0,0
18.07.2018 00:00:00 18,8 12,4 - - 0,0
17.07.2018 23:00:00 19,2 12,3 - - 0,0
17.07.2018 22:00:00 19,6 12,1 - - 0,0
17.07.2018 21:00:00 20,4 11,8 - - 0,0
17.07.2018 20:00:00 21,4 11,3 - - 0,0
17.07.2018 19:00:00 21,8 10,9 - - 0,0
17.07.2018 18:00:00 22,7 10,1 - - 0,0
17.07.2018 17:00:00 23,0 9,7 - - 0,0
17.07.2018 16:00:00 23,0 9,3 - - 0,0
17.07.2018 15:00:00 23,4 9,8 - - 0,0
17.07.2018 14:00:00 23,1 9,0 - - 0,0
17.07.2018 13:00:00 22,6 10,3 - - 0,0
17.07.2018 12:00:00 23,1 10,9 - - 0,0
17.07.2018 11:00:00 22,2 9,8 - - 0,0
17.07.2018 10:00:00 20,5 9,9 21,4 19,5 0,0
17.07.2018 09:00:00 19,0 10,9 - - 0,0
17.07.2018 08:00:00 16,6 11,1 - - 0,0
17.07.2018 07:00:00 15,3 10,9 - - 0,0
17.07.2018 06:00:00 14,8 10,8 - - 0,0
17.07.2018 05:00:00 14,9 10,5 - - 0,0
17.07.2018 04:00:00 15,8 11,0 - - 0,0
17.07.2018 03:00:00 16,6 11,1 - - 0,0
17.07.2018 02:00:00 17,5 10,2 - - 0,0
17.07.2018 01:00:00 18,7 9,1 - - 0,0
17.07.2018 00:00:00 20,2 12,6 - - 0,0
16.07.2018 23:00:00 21,1 14,2 - - 0,0
16.07.2018 22:00:00 23,1 14,2 - - 0,0
16.07.2018 21:00:00 25,1 10,5 - - 0,0
16.07.2018 20:00:00 25,8 9,9 - - 0,0
16.07.2018 19:00:00 26,6 11,7 - - 0,0
16.07.2018 18:00:00 27,7 11,2 - - 0,0
16.07.2018 17:00:00 28,0 9,9 - - 0,0
16.07.2018 16:00:00 28,0 9,0 - - 0,0
16.07.2018 15:00:00 29,8 8,3 - - 0,0
16.07.2018 14:00:00 28,2 7,8 - - 0,0
16.07.2018 13:00:00 28,7 10,3 - - 0,0
16.07.2018 12:00:00 28,0 11,4 - - 0,0
16.07.2018 11:00:00 26,3 11,2 - - 0,0
16.07.2018 10:00:00 25,7 11,9 21,4 19,4 0,0
16.07.2018 09:00:00 23,3 12,3 - - 0,0
16.07.2018 08:00:00 20,3 12,7 - - 0,0
16.07.2018 07:00:00 18,8 11,8 - - 0,0
16.07.2018 06:00:00 17,0 11,9 - - 0,0
16.07.2018 05:00:00 16,4 11,2 - - 0,0
16.07.2018 04:00:00 17,3 10,5 - - 0,0
16.07.2018 03:00:00 18,1 10,3 - - 0,0
16.07.2018 02:00:00 19,9 11,2 - - 0,0
16.07.2018 01:00:00 20,9 10,9 - - 0,0
16.07.2018 00:00:00 23,3 9,1 - - 0,0
15.07.2018 23:00:00 23,9 9,7 - - 0,0
15.07.2018 22:00:00 25,3 10,2 - - 0,0
15.07.2018 21:00:00 26,6 10,1 - - 0,0
15.07.2018 20:00:00 27,3 9,8 - - 0,0
15.07.2018 19:00:00 27,9 8,8 - - 0,0
15.07.2018 18:00:00 29,5 8,6 - - 0,0
15.07.2018 17:00:00 29,7 8,0 - - 0,0
15.07.2018 16:00:00 29,8 8,5 - - 0,0
15.07.2018 15:00:00 29,4 9,0 - - 0,0
15.07.2018 14:00:00 28,3 9,4 - - 0,0
15.07.2018 13:00:00 27,7 10,2 - - 0,0
15.07.2018 12:00:00 27,1 11,0 - - 0,0
15.07.2018 11:00:00 26,2 12,4 - - 0,0
15.07.2018 10:00:00 23,8 11,3 21,0 19,4 0,0
15.07.2018 09:00:00 21,9 13,2 - - 0,0
15.07.2018 08:00:00 19,2 13,3 - - 0,0
15.07.2018 07:00:00 17,0 13,9 - - 0,0
15.07.2018 06:00:00 15,2 12,6 - - 0,0
15.07.2018 05:00:00 15,8 12,2 - - 0,0
15.07.2018 04:00:00 16,8 12,7 - - 0,0
15.07.2018 03:00:00 17,2 13,1 - - 0,0
15.07.2018 02:00:00 17,7 12,7 - - 0,0

tt = temperature
td = dewpoint
tt -20cm = temperature -20cm
tt -100cm = temperature -100cm
rr = precipitation

Next stations